Location: Poughquag
(41.6090°N, 73.6820°W)
Time: 01:00:29
(UTC-05:00)

S-56A Canister/Altair - Visible Passes

Search period start: 29 November 2023 00:00
Search period end: 09 December 2023 00:00
Orbit: 640 x 2489 km, 38.9° (Epoch: 28 November)

Date Brightness Start Highest point End Pass type
(mag) Time Alt. Az. Time Alt. Az. Time Alt. Az.
29 Nov 9.2 17:45:16 10° W 17:51:09 46° SSW 17:59:47 10° SE visible
29 Nov 10.6 19:49:45 10° WSW 19:55:22 21° SSW 20:00:38 14° S visible
30 Nov 9.0 17:12:25 10° W 17:17:56 48° SSW 17:25:59 10° SE visible
30 Nov 10.4 19:16:34 10° WSW 19:22:02 22° SSW 19:29:10 10° SSE visible
01 Dec 10.3 18:43:28 10° W 18:48:45 24° SSW 18:55:43 10° SSE visible
02 Dec 10.2 18:10:26 10° W 18:15:29 25° SSW 18:22:14 10° SSE visible
03 Dec 10.0 17:37:27 10° W 17:42:18 26° SSW 17:48:47 10° SSE visible
04 Dec 9.9 17:04:28 10° W 17:09:08 28° SSW 17:15:19 10° SSE visible
07 Dec 10.9 17:31:52 10° SW 17:33:23 11° SSW 17:35:00 10° SSW visible
08 Dec 10.8 16:58:12 10° SW 17:00:15 12° SSW 17:02:29 10° S visible
